Date,TemperatureHighF,TemperatureAvgF,TemperatureLowF,DewpointHighF,DewpointAvgF,DewpointLowF,HumidityHigh,HumidityAvg,HumidityLow,PressureMaxIn,PressureMinIn,WindSpeedMaxMPH,WindSpeedAvgMPH,GustSpeedMaxMPH,PrecipitationSumIn
2013-1-1,57.1,52.2,47.0,52.5,49.0,43.6,97,89,79,30.16,29.94,5,1,6,0.08
2013-1-2,61.0,53.2,45.6,52.1,49.0,42.3,97,86,65,30.18,29.93,6,1,7,0.08
2013-1-3,47.5,42.7,34.1,41.8,39.7,32.8,95,89,79,30.39,30.15,4,0,6,0.00
2013-1-4,42.2,33.5,29.9,37.1,32.2,28.9,97,95,82,30.48,30.39,3,0,3,0.01
2013-1-5,53.7,47.0,30.8,40.8,31.6,24.6,87,57,36,30.51,30.35,5,1,10,0.00
2013-1-6,52.5,46.5,39.9,43.7,40.1,35.1,88,79,64,30.35,30.17,5,2,7,0.01
2013-1-7,54.6,41.8,31.4,38.4,33.9,30.1,95,76,45,30.48,30.31,7,1,13,0.00
2013-1-8,57.0,45.3,30.8,46.9,39.8,29.0,93,82,69,30.52,30.39,6,0,6,0.00
2013-1-9,67.2,53.5,42.4,58.1,48.0,40.8,94,82,71,30.51,30.38,3,0,6,0.00
2013-1-10,63.4,61.6,60.8,59.9,59.6,59.2,95,93,88,30.37,30.28,3,2,7,0.00
2013-1-11,73.1,66.1,61.4,65.1,62.9,59.9,97,90,76,30.28,30.11,10,3,14,0.00
2013-1-12,66.5,61.2,58.6,62.2,59.5,57.3,96,94,90,30.17,30.13,6,1,6,0.00
2013-1-20,59.4,50.6,43.5,39.7,38.6,36.8,77,64,48,30.16,30.13,1,0,7,0.00
2013-1-21,43.8,38.4,33.1,38.0,34.7,31.3,94,87,75,30.17,30.11,3,1,3,0.00
2013-1-25,40.0,37.6,33.2,28.4,25.0,17.5,67,60,52,30.45,30.27,3,0,5,0.00
2013-1-26,61.3,45.3,34.1,38.3,32.7,24.8,88,64,32,30.38,30.21,5,1,7,0.00
2013-1-27,39.8,34.1,32.1,33.2,31.4,29.8,93,90,77,30.61,30.38,4,0,7,0.00
2013-1-30,72.3,58.0,49.2,65.8,55.0,47.0,96,90,80,29.72,29.47,16,6,33,0.73
2013-1-31,49.2,40.6,36.4,41.8,32.5,27.8,82,73,66,30.11,29.72,17,7,20,0.00
2013-2-1,46.9,40.1,29.2,23.5,13.3,8.4,48,34,22,30.48,30.35,15,4,25,0.00
2013-2-2,34.4,25.4,21.5,19.9,16.5,12.0,84,70,54,30.52,30.46,3,0,4,0.00
2013-2-4,50.1,43.8,32.7,36.8,33.2,29.3,87,67,49,30.23,30.10,4,0,5,0.00
2013-2-5,58.0,39.9,31.8,48.3,35.5,30.0,94,85,69,30.11,30.05,5,0,9,0.00
2013-2-7,45.2,44.7,44.2,44.1,43.5,42.7,96,96,94,30.02,29.98,6,4,13,1.10
2013-2-8,59.0,49.1,42.0,51.5,45.7,38.4,95,88,76,30.19,29.97,6,2,10,0.01
2013-2-9,43.2,34.8,29.6,37.5,32.9,28.4,96,93,80,30.39,30.18,3,0,4,0.01
2013-2-13,53.4,52.5,50.9,50.5,49.2,46.1,97,89,80,29.84,29.79,5,2,12,0.12
2013-2-22,40.6,40.6,40.6,39.5,39.5,39.5,96,96,96,30.22,30.22,3,3,11,0.00
2013-2-25,47.7,45.0,39.3,37.7,35.9,33.2,94,71,57,30.14,30.00,6,3,12,1.06
2013-2-26,48.4,42.4,37.7,47.3,41.2,36.5,97,96,89,30.00,29.64,6,3,9,0.99
2013-2-27,60.8,48.9,38.9,40.5,38.3,35.7,89,69,42,29.94,29.82,9,3,15,0.00
2013-2-28,51.9,45.0,37.1,37.7,33.4,28.2,74,64,50,30.03,29.84,14,3,14,0.00
2013-3-1,51.2,40.8,31.2,33.8,30.4,26.6,83,67,49,30.07,29.95,12,3,13,0.00
2013-3-2,45.8,39.1,34.0,35.5,31.0,26.5,87,73,51,30.07,29.96,9,3,17,0.00
2013-3-3,46.5,36.4,28.6,27.0,22.9,20.6,85,60,38,30.16,30.03,11,3,15,0.00
2013-3-4,59.8,43.2,24.8,33.8,25.9,20.0,85,53,30,30.30,30.12,11,1,11,0.00
2013-3-5,68.0,52.9,37.5,57.2,44.5,32.2,93,73,60,30.14,29.70,14,6,23,0.23
2013-3-6,47.0,40.0,33.4,30.2,27.4,21.6,81,61,51,30.24,29.86,21,7,32,0.00
2013-3-7,59.5,38.9,25.3,35.2,29.4,23.6,94,73,38,30.36,30.22,7,1,7,0.00
2013-3-8,62.1,50.4,36.7,34.5,31.1,28.5,84,51,28,30.40,30.25,5,1,9,0.00
2013-3-9,65.2,48.5,33.4,38.1,32.7,29.0,89,59,27,30.42,30.27,4,1,7,0.00
2013-3-10,69.4,55.2,42.5,50.9,43.2,36.7,85,66,38,30.33,30.14,7,2,14,0.00
2013-3-11,68.7,58.7,49.2,56.8,52.4,45.8,96,80,63,30.14,29.81,16,5,16,0.31
2013-3-12,66.1,55.5,44.5,58.1,44.7,35.0,96,71,35,30.09,29.75,13,4,14,0.22
2013-3-13,58.6,48.4,37.2,36.9,30.1,23.8,86,53,29,30.26,30.10,14,4,20,0.00
2013-3-14,56.9,43.0,27.2,25.9,23.6,21.9,80,48,27,30.44,30.27,10,3,11,0.00
2013-3-15,72.6,55.2,34.7,43.2,34.9,22.1,84,49,31,30.31,30.01,14,3,15,0.00
2013-3-16,77.7,64.9,52.1,45.7,42.9,39.5,74,48,26,30.03,29.85,22,6,23,0.00
2013-3-17,71.3,62.8,53.5,56.0,51.4,43.4,86,67,53,30.02,29.92,14,4,18,0.00
2013-3-18,62.2,55.6,51.0,56.3,53.1,49.6,96,92,81,30.07,29.87,3,0,5,0.01
2013-3-19,56.4,52.4,49.5,35.3,34.0,33.0,58,50,41,30.08,30.07,0,0,4,0.00
2013-3-20,59.7,48.5,36.1,36.2,28.8,22.1,88,51,26,30.18,29.92,6,1,11,0.00
2013-3-21,51.7,42.7,32.7,31.4,22.6,13.9,81,49,22,29.99,29.91,11,4,14,0.00
2013-4-3,61.2,54.6,49.6,45.4,41.7,36.1,83,64,39,30.24,30.19,1,0,9,0.03
2013-4-4,50.5,44.0,39.3,45.2,42.1,38.3,96,93,74,30.20,30.04,9,3,12,0.86
2013-4-5,62.7,48.4,38.8,48.9,43.1,37.8,96,83,58,30.09,30.00,9,2,11,0.01
2013-4-6,71.6,53.8,37.0,46.1,40.3,36.0,97,67,29,30.24,30.11,8,2,12,0.00
2013-4-7,75.9,59.6,41.7,55.0,49.3,40.1,96,71,42,30.26,30.09,9,2,12,0.00
2013-4-8,80.3,67.1,56.2,56.9,54.9,52.7,91,68,41,30.17,30.04,14,4,15,0.00
2013-4-9,82.5,69.2,56.6,62.4,58.1,54.5,93,70,44,30.19,30.07,9,2,12,0.00
2013-4-10,84.6,71.3,60.8,62.8,59.5,56.5,94,69,41,30.12,29.92,9,4,14,0.00
2013-4-11,65.2,61.7,58.6,60.2,58.9,57.5,96,91,79,29.94,29.90,4,1,6,0.00
2013-4-22,68.3,61.2,49.9,47.0,45.2,43.0,77,57,43,30.36,30.20,9,1,17,0.00
2013-4-23,74.6,57.8,42.2,52.7,46.8,39.5,91,69,42,30.27,30.11,4,0,6,0.00
2013-4-24,75.6,63.9,52.8,60.8,56.6,50.0,96,79,53,30.17,30.05,12,3,23,0.00
2013-4-25,76.3,64.5,54.0,60.7,49.9,38.2,94,64,26,30.29,30.06,7,1,10,0.00
2013-4-26,75.8,60.2,41.3,53.1,45.0,37.7,87,61,35,30.41,30.28,9,1,13,0.00
2013-4-27,71.3,60.5,53.5,59.3,53.7,48.2,91,79,55,30.38,30.20,11,1,12,0.00
2013-4-28,72.3,60.5,55.0,66.2,58.3,53.9,97,93,81,30.20,29.96,8,1,11,1.39
2013-4-29,70.0,61.5,58.0,64.9,60.0,56.9,98,95,84,30.06,29.93,4,0,6,0.18
2013-4-30,80.2,64.4,51.5,64.0,58.5,50.7,98,83,46,30.10,29.98,5,0,7,0.01
2013-5-1,67.8,62.2,59.4,59.8,58.6,57.3,96,88,74,30.22,30.08,5,2,9,0.00
2013-5-21,78.0,71.9,66.4,67.8,65.1,64.0,92,80,63,29.97,29.91,9,2,20,0.00
2013-5-22,82.5,70.7,61.2,73.0,67.0,60.3,97,89,71,29.97,29.85,10,1,12,1.25
2013-5-23,83.6,73.1,65.2,69.9,64.6,59.6,97,77,49,29.94,29.84,7,1,12,0.01
2013-5-24,78.7,68.7,57.2,59.4,55.3,49.5,88,65,36,30.19,29.91,12,3,16,0.00
2013-5-25,78.1,62.6,47.0,57.0,49.8,45.4,94,67,35,30.34,30.20,5,1,7,0.00
2013-5-26,59.6,54.5,51.3,53.4,51.7,49.9,95,90,80,30.23,30.16,0,0,0,0.00
2013-6-3,81.2,76.2,71.1,73.8,71.4,67.8,95,85,72,29.93,29.82,11,2,15,0.09
2013-6-4,87.6,77.2,67.6,73.8,70.4,66.7,97,81,59,29.97,29.89,5,0,9,0.05
2013-6-5,81.8,73.0,69.0,74.5,70.5,67.5,97,92,76,30.00,29.89,3,0,5,0.83
2013-6-6,74.6,71.3,68.7,71.4,69.9,67.8,97,96,89,29.89,29.70,5,1,11,0.23
2013-6-7,84.4,72.9,68.0,73.0,69.4,67.1,97,90,68,29.82,29.60,5,3,10,0.28
2013-6-8,82.7,73.8,68.1,72.3,68.9,66.9,97,85,67,30.05,29.81,4,0,9,0.00
2013-6-9,84.8,73.4,67.5,74.9,70.5,66.6,97,91,70,30.08,30.00,11,2,12,0.97
2013-6-10,80.5,73.4,70.3,73.8,71.1,69.4,97,93,80,30.03,29.95,13,5,25,0.06
2013-6-15,86.1,77.3,66.6,68.2,65.5,63.4,93,70,47,30.08,30.03,0,0,6,0.00
2013-6-16,86.8,76.0,66.5,72.2,68.2,64.1,93,78,54,30.14,29.98,8,1,11,0.00
2013-6-17,86.1,75.0,68.2,75.3,70.5,66.7,96,87,69,30.03,29.90,7,1,9,0.17
2013-6-18,83.6,73.5,68.3,76.0,71.2,67.4,97,93,77,29.93,29.79,12,3,15,0.25
2013-6-19,79.9,74.1,69.1,73.9,71.4,67.9,97,92,81,30.04,29.85,4,0,6,0.13
2013-6-20,83.6,74.1,65.6,70.5,67.5,64.7,97,82,58,30.15,30.04,4,0,8,0.01
2013-6-21,83.7,73.3,63.3,69.9,66.3,62.1,97,80,59,30.21,30.12,3,0,6,0.00
2013-6-22,84.9,74.1,61.8,71.6,67.1,60.7,96,80,60,30.17,30.06,4,1,6,0.00
2013-6-23,83.0,74.4,65.0,75.1,70.3,64.0,97,88,72,30.16,30.08,4,0,10,0.01
2013-6-24,88.2,77.5,68.7,75.0,71.3,67.7,97,83,59,30.19,30.06,5,1,9,0.00
2013-6-25,88.6,77.8,67.9,74.6,71.0,66.7,97,81,58,30.13,29.98,5,0,7,0.01
2013-6-26,87.5,78.0,70.3,78.0,73.6,69.1,96,87,67,30.03,29.89,9,2,11,0.15
2013-6-27,88.3,79.9,73.5,76.5,74.6,72.0,95,85,67,29.93,29.73,10,3,14,0.08
2013-6-28,92.2,79.7,71.6,77.0,72.8,69.4,95,81,56,29.76,29.58,15,3,26,0.01
2013-6-29,85.5,75.0,69.6,74.2,71.0,68.1,96,88,64,29.68,29.59,7,2,11,1.58
2013-6-30,82.7,73.4,69.5,75.6,70.8,68.3,96,92,74,29.77,29.65,6,1,10,0.21
2013-7-1,82.8,75.3,69.9,74.9,71.5,69.0,97,89,75,29.90,29.73,6,1,7,0.01
2013-7-2,83.4,75.4,71.3,74.2,71.8,70.1,96,89,72,30.04,29.89,6,2,7,0.08
2013-7-3,82.0,73.8,70.4,74.8,71.3,69.2,97,92,77,30.14,30.05,12,2,13,1.60
2013-7-4,83.2,73.0,69.1,77.5,71.4,68.2,98,95,80,30.15,30.07,10,2,16,0.84
2013-7-5,85.6,74.9,69.1,76.1,72.1,68.3,98,92,69,30.18,30.11,14,1,17,0.41
2013-7-6,82.7,75.5,71.3,75.9,72.9,70.3,97,92,80,30.15,30.04,6,1,9,0.07
2013-7-7,86.9,78.3,73.2,77.9,74.1,72.3,98,88,68,30.14,30.03,6,1,7,0.02
2013-7-8,88.1,76.9,71.1,76.7,72.7,70.2,97,88,63,30.16,30.06,3,0,7,0.01
2013-7-9,88.5,78.8,71.2,76.6,73.6,70.3,97,85,64,30.14,30.01,5,1,7,0.01
2013-7-10,82.4,75.6,71.7,77.2,73.7,70.8,98,94,84,30.08,29.92,6,1,7,0.06
2013-7-11,84.1,76.0,71.5,77.7,73.2,70.5,98,92,77,29.94,29.82,7,2,17,0.01
2013-7-12,84.6,74.3,69.6,76.2,72.2,68.4,98,93,76,29.93,29.81,1,0,4,1.17
2013-7-13,79.6,73.0,69.7,75.7,71.5,68.8,98,95,85,30.03,29.89,0,0,3,0.02
2013-7-14,80.9,74.7,70.1,77.3,72.7,69.2,98,93,82,30.19,30.02,6,1,10,0.30
2013-7-15,85.1,74.6,69.7,77.4,72.4,68.8,98,93,76,30.24,30.15,9,1,9,1.13
2013-7-16,88.6,77.4,68.7,76.2,72.5,68.1,99,87,60,30.28,30.17,2,0,6,0.01
2013-7-17,93.6,77.7,68.3,78.4,72.4,67.7,98,86,54,30.23,30.07,14,1,14,0.52
2013-7-18,87.7,77.0,67.8,78.8,72.8,67.2,99,88,66,30.16,30.01,2,0,5,0.01
2013-7-19,87.4,79.5,71.8,78.9,74.6,70.9,97,86,69,30.07,29.93,4,0,5,0.00
2013-7-20,85.1,77.6,72.3,77.1,73.8,71.1,96,89,74,30.01,29.88,6,2,11,0.00
2013-7-21,87.5,78.1,73.3,77.5,74.0,71.8,97,88,65,29.99,29.88,10,2,14,0.00
2013-7-22,85.6,76.7,70.6,76.3,72.7,69.7,97,88,69,29.99,29.85,7,1,10,0.03
2013-7-23,86.2,77.6,72.0,76.3,72.9,70.5,96,86,70,29.88,29.76,5,1,12,0.00
2013-7-24,89.3,79.2,71.7,78.0,73.9,69.0,96,85,63,29.79,29.70,0,0,6,0.00
2013-7-25,88.3,78.6,69.3,77.9,72.8,68.1,97,84,61,29.92,29.74,0,0,0,0.00
2013-7-26,85.5,74.9,69.9,78.2,72.3,68.7,98,92,76,30.03,29.93,5,0,16,1.30
2013-7-27,83.7,76.5,70.4,77.0,73.2,69.5,98,90,72,29.96,29.85,6,1,11,0.02
2013-7-28,88.0,77.9,69.1,76.8,72.1,67.9,97,84,62,29.96,29.88,4,0,6,0.00
2013-7-29,87.9,78.8,70.7,75.2,72.8,69.6,98,83,62,30.09,29.95,6,1,10,0.00
2013-7-30,91.1,77.1,64.9,76.1,69.7,64.0,97,81,49,30.16,30.06,0,0,0,0.00
2013-7-31,76.4,72.9,70.8,74.2,71.5,69.9,97,96,88,30.10,29.96,9,0,9,0.50
2013-8-1,87.4,78.7,71.6,77.9,74.2,70.7,98,87,68,29.98,29.82,5,1,10,0.12
2013-8-2,91.0,79.2,73.3,79.0,74.7,72.5,98,87,63,29.98,29.85,0,0,0,0.01
2013-8-3,87.7,79.3,71.0,78.0,74.0,70.1,98,85,64,29.99,29.92,0,0,0,0.00
2013-8-4,91.1,80.8,74.4,79.9,74.8,71.9,94,83,63,29.94,29.85,0,0,0,0.00
2013-8-5,87.2,77.9,71.0,78.3,74.1,70.1,97,88,72,29.98,29.90,0,0,0,0.02
2013-8-6,85.7,77.1,71.3,77.9,73.6,70.1,97,89,73,30.01,29.90,0,0,3,0.11
2013-8-7,85.3,76.1,71.7,75.8,73.2,71.0,98,91,72,30.01,29.95,9,1,11,0.16
2013-8-8,88.8,78.4,71.4,79.7,73.8,70.8,98,87,63,30.02,29.93,4,0,4,0.07
2013-8-9,90.6,80.3,71.7,79.1,75.2,70.8,98,85,64,30.05,29.94,7,1,10,0.03
2013-8-10,91.0,81.0,73.7,77.6,75.0,72.5,96,83,63,30.07,29.99,9,1,9,0.02
2013-8-11,89.9,80.7,71.2,77.4,74.6,70.6,98,83,60,30.11,30.00,0,0,1,0.03
2013-8-12,89.5,79.1,72.7,78.7,74.8,71.5,97,87,67,30.04,29.93,0,0,0,0.04
2013-8-13,88.3,80.0,72.6,76.6,74.4,71.4,96,84,66,29.94,29.80,13,1,13,0.01
2013-8-14,77.7,74.1,70.2,74.5,71.7,69.0,97,92,80,29.99,29.81,0,0,0,0.00
2013-8-15,71.6,68.2,64.9,69.2,65.7,61.9,97,92,82,30.09,29.97,0,0,9,0.03
2013-8-16,66.2,64.2,62.4,64.8,63.1,61.5,97,96,94,30.13,30.03,6,0,6,0.18
2013-8-17,67.9,65.2,62.2,67.3,64.4,61.4,98,98,97,30.15,30.08,1,0,5,0.52
2013-8-18,82.1,72.8,67.5,76.4,70.7,66.9,99,93,78,30.18,30.07,4,0,4,1.86
2013-8-23,90.1,83.1,73.2,80.2,74.6,68.4,91,77,58,30.02,29.90,0,0,0,0.00
2013-8-24,79.2,72.4,68.1,71.0,68.8,67.2,97,89,76,30.23,29.99,2,0,6,0.00
2013-8-25,81.0,71.0,61.8,68.3,64.2,60.9,98,81,52,30.34,30.23,2,0,10,0.01
2013-8-26,63.2,59.8,56.8,62.0,58.8,56.0,98,97,95,30.30,30.26,0,0,0,0.01
2013-9-8,91.0,82.3,71.5,74.2,70.8,68.4,95,70,53,29.96,29.86,0,0,2,0.00
2013-9-9,90.3,78.1,68.8,73.3,70.2,67.9,97,79,50,30.06,29.92,2,0,4,0.00
2013-9-10,88.8,77.1,67.6,73.9,70.1,66.7,98,81,52,30.19,30.07,1,0,4,0.00
2013-9-11,89.3,75.4,63.6,72.9,66.7,62.7,98,78,44,30.19,30.05,9,0,10,0.00
2013-9-12,89.1,75.2,65.9,72.9,69.1,64.5,96,83,58,30.04,29.85,4,0,10,0.00
2013-9-13,89.2,77.3,66.4,71.8,66.8,59.2,93,73,37,29.82,29.70,7,2,10,0.00
2013-9-14,82.3,69.5,58.2,66.0,60.2,54.6,90,74,52,30.05,29.82,7,1,9,0.00
2013-9-15,86.5,73.3,62.1,73.3,67.2,61.0,96,83,58,30.14,30.03,9,0,9,0.00
2013-9-16,87.8,76.4,68.3,75.5,70.7,67.4,97,84,58,30.09,29.97,7,1,7,0.00
2013-9-17,78.6,71.6,67.0,67.3,64.7,63.0,96,80,60,30.21,30.05,7,1,14,0.00
2013-9-18,77.8,68.1,61.2,63.7,61.4,59.5,94,80,57,30.25,30.13,4,0,7,0.00
2013-9-19,85.1,69.4,56.3,66.9,62.0,55.5,98,80,50,30.18,30.05,1,0,5,0.00
2013-9-20,85.8,72.2,60.8,69.7,65.0,59.7,97,81,54,30.07,29.89,7,1,9,0.00
2013-9-21,71.3,67.9,66.6,69.2,66.2,65.3,96,94,92,29.89,29.81,4,1,7,0.00
2013-9-26,75.6,69.1,60.7,65.9,63.3,59.6,96,83,67,30.00,29.90,5,1,13,0.01
2013-9-27,77.7,64.9,54.6,61.3,58.0,53.8,97,81,52,30.14,30.00,7,1,12,0.00
2013-9-28,74.7,61.8,53.7,59.3,56.1,52.9,97,83,53,30.23,30.13,10,0,10,0.00
2013-9-29,74.5,63.2,54.2,61.3,57.0,52.5,95,82,55,30.17,30.02,6,0,7,0.01
2013-9-30,78.0,62.5,51.4,62.3,56.8,50.6,98,84,54,30.10,29.99,0,0,4,0.00
2013-10-1,82.8,65.6,53.2,64.5,58.8,52.4,98,81,50,30.18,30.04,3,0,6,0.00
2013-10-2,83.2,68.1,55.7,67.3,61.2,54.9,98,81,50,30.16,30.05,3,0,5,0.00
2013-10-3,86.4,70.3,57.0,65.7,61.2,56.2,98,77,44,30.13,30.03,1,0,3,0.00
2013-10-4,86.5,70.0,57.2,67.3,62.5,56.4,97,80,48,30.15,30.05,3,0,4,0.00
2013-10-5,87.4,71.9,58.7,68.6,64.0,57.8,97,80,49,30.13,29.98,1,0,6,0.00
2013-10-6,85.1,72.4,59.6,69.3,65.3,58.8,97,81,51,30.02,29.81,7,1,14,0.00
2013-10-7,76.0,73.1,70.8,72.0,70.7,69.6,97,92,82,29.83,29.76,4,1,5,0.02
2013-10-25,59.0,50.4,39.4,39.9,36.4,32.8,78,60,42,30.43,30.34,9,2,11,0.00
2013-10-26,62.5,45.3,30.5,41.1,35.7,29.2,96,73,37,30.43,30.21,5,1,10,0.00
2013-10-27,72.1,56.2,38.8,56.0,47.6,36.7,92,75,54,30.20,30.10,7,0,10,0.00
2013-10-28,67.4,60.4,55.7,59.2,56.5,54.1,95,87,72,30.30,30.13,2,0,4,0.00
2013-10-29,72.7,59.0,49.1,59.6,54.0,48.0,97,85,62,30.37,30.27,0,0,1,0.00
2013-11-7,74.3,57.1,45.4,59.5,43.3,38.3,76,61,43,30.19,29.97,6,4,17,0.00
2013-11-8,61.8,45.9,33.5,38.4,35.1,30.9,95,70,31,30.40,30.19,6,1,9,0.00
2013-11-9,62.0,47.1,32.3,43.7,37.8,31.0,96,74,36,30.46,30.30,3,0,6,0.00
2013-11-10,72.5,56.7,46.5,48.1,44.2,39.7,87,66,33,30.31,30.16,4,0,6,0.00
2013-11-11,59.9,49.1,42.5,41.8,38.5,35.9,88,69,43,30.36,30.21,2,0,6,0.00
2013-11-12,67.0,49.9,36.9,45.0,32.3,21.4,56,51,45,30.48,30.11,11,8,20,0.00
2013-11-13,50.2,39.2,27.1,22.6,19.2,13.8,83,49,24,30.69,30.58,4,1,7,0.00
2013-11-14,60.2,39.0,23.0,28.3,23.6,20.8,93,61,22,30.65,30.41,4,0,5,0.00
2013-11-15,58.0,48.0,33.2,51.5,42.9,28.3,93,83,71,30.41,30.22,5,0,5,0.00
2013-11-16,69.5,58.9,52.8,59.7,55.3,51.1,96,88,71,30.27,30.15,4,0,6,0.00
2013-11-17,68.5,63.6,58.9,66.8,61.1,56.9,95,92,86,30.17,29.93,6,1,8,0.01
2013-11-18,69.4,62.2,50.3,67.8,54.6,35.7,95,78,52,29.99,29.88,7,2,11,0.00
2013-11-19,60.2,45.7,36.8,38.2,34.0,30.7,92,67,33,30.25,29.99,1,0,3,0.00
2013-11-20,54.8,47.3,37.7,39.7,34.8,30.9,80,63,47,30.41,30.24,7,1,8,0.00
2013-11-21,54.0,50.9,47.8,49.3,44.2,39.7,88,78,65,30.47,30.39,6,1,6,0.00
2013-11-23,67.3,59.0,45.2,59.3,49.9,30.9,96,73,52,30.24,30.04,10,3,11,0.12
2013-11-24,47.8,37.8,30.0,31.8,23.9,18.1,92,60,31,30.60,30.24,7,1,9,0.00
2013-11-25,48.3,38.5,25.4,28.1,22.2,13.1,77,54,31,30.65,30.31,5,1,8,0.00
2013-11-26,45.5,41.0,36.3,44.7,37.6,27.8,100,89,53,30.31,29.69,5,1,11,1.08
2013-11-27,47.6,40.6,27.6,46.8,34.3,22.0,97,80,54,30.35,29.61,14,5,19,0.17
2013-11-28,50.3,33.3,21.0,29.5,24.6,19.0,93,74,39,30.61,30.35,4,0,7,0.00
2013-11-29,38.8,27.9,23.6,31.6,25.6,21.9,94,91,75,30.66,30.57,0,0,1,0.00
2013-12-1,55.1,48.2,42.8,46.9,43.3,38.4,95,84,66,30.29,30.08,4,0,6,0.00
2013-12-2,59.8,49.7,41.2,51.2,46.4,39.9,96,89,68,30.08,29.85,2,0,6,0.01
2013-12-3,59.5,54.8,50.2,57.6,53.5,49.1,96,95,93,29.96,29.86,6,1,6,0.67
2013-12-4,68.9,62.1,58.0,64.6,60.4,56.9,96,94,86,30.05,29.92,5,1,9,0.26
2013-12-5,71.5,66.2,61.7,68.4,63.7,60.0,94,92,90,30.09,30.00,9,3,13,0.48
2013-12-6,78.0,69.0,59.4,67.0,63.7,56.8,91,84,68,30.08,29.97,12,5,15,0.00
2013-12-7,68.6,56.9,48.0,64.9,54.4,45.8,93,91,88,30.37,30.00,12,2,14,0.19
2013-12-8,48.0,44.1,41.1,45.2,42.6,39.8,95,94,93,30.40,30.31,6,1,10,0.13
2013-12-9,50.3,44.9,40.5,49.2,43.8,39.2,100,96,95,30.31,30.08,4,1,5,0.38
2013-12-10,59.5,48.6,32.3,58.4,43.8,30.2,96,85,53,30.42,29.97,13,3,18,0.10
2013-12-11,54.2,39.1,28.2,39.3,33.2,26.4,94,81,52,30.56,30.40,5,0,7,0.00
2013-12-12,53.3,39.1,29.0,32.8,29.7,25.4,92,72,34,30.53,30.38,4,1,9,0.00
2013-12-13,58.1,40.7,23.9,38.9,31.4,22.2,93,73,36,30.49,30.28,5,0,7,0.01
2013-12-14,57.7,49.1,44.9,56.0,46.3,37.6,96,90,75,30.23,29.86,9,2,12,0.12
2013-12-15,51.5,45.1,31.3,50.4,39.9,28.7,96,83,64,30.25,29.81,15,3,16,0.02
2013-12-16,58.0,42.5,29.8,37.1,32.5,27.8,93,71,40,30.33,30.23,5,1,9,0.73
2013-12-17,62.5,50.2,37.9,38.0,35.0,32.8,84,58,36,30.29,30.12,11,3,14,0.00
2013-12-18,55.9,43.5,31.8,37.0,28.2,20.4,87,59,25,30.40,30.16,9,2,12,0.00
2013-12-19,61.3,39.2,27.6,35.6,28.7,25.8,93,73,29,30.47,30.33,4,1,6,0.00
2013-12-21,69.9,69.2,68.5,65.8,65.4,65.1,89,88,86,30.00,29.96,4,2,14,0.00
2013-12-22,73.5,66.6,62.2,67.7,64.1,60.8,96,92,82,30.03,29.94,16,5,26,1.29
2013-12-23,64.0,55.2,41.0,62.8,53.4,38.9,96,93,87,30.25,29.99,7,2,12,1.32
2013-12-24,49.2,38.9,29.1,37.6,30.0,24.6,93,73,40,30.51,30.25,10,3,14,0.00
2013-12-25,45.4,36.6,27.2,30.1,24.7,21.6,79,63,44,30.65,30.46,4,1,7,0.00
2013-12-26,55.9,42.7,34.4,38.8,33.3,26.4,92,71,41,30.46,30.32,6,1,7,0.00
2013-12-27,52.0,38.9,31.2,37.4,32.5,29.9,95,80,47,30.57,30.41,5,0,8,0.00
2013-12-28,47.0,38.5,29.7,40.9,35.5,28.3,95,89,68,30.51,30.12,9,1,9,0.03
2013-12-29,53.9,46.9,42.4,49.5,44.7,40.9,97,92,85,30.12,29.87,6,1,18,0.07
2013-12-30,54.6,47.9,41.5,46.5,43.8,39.9,94,86,73,30.23,30.03,5,1,10,0.00
2013-12-31,51.1,44.0,35.0,45.3,37.1,31.1,92,78,46,30.46,30.21,7,2,9,0.00
2014-1-1,47.3,40.2,33.8,43.7,37.4,32.0,94,90,80,30.47,30.30,0,0,0,0.00